^^
Saratoga-Weather Station Historical Data
Daily Summary for January 21, 2021 Units:  English    Metric   Both
Daily Weekly Monthly Yearly Custom
  High: Low: Average:
Temperature: 52.3 °F 42.3 °F 48.7 °F
Dew Point: 46.8 °F 39.7 °F 42.8 °F
Humidity: 93% 65% 81%
Wind Speed: 16mph 0mph 3.6mph
Wind Gust: 19mph - -
Wind- - SSW
Pressure: 29.5 in 29.2 in -
Precipitation: 0.35 in    
Historical Graphs
 
 
Tabular Data for January 21, 2021
Time Temperature Dew Point Pressure Wind Wind Speed Wind Gust Humidity Rainfall Rate (Hourly) solar
00:01 51.6 °F 41.4 °F 29.4 in NNW 2 mph 9 mph 68% 0 in 0 W/m2
00:06 51.4 °F 41.2 °F 29.4 in NW 2.9 mph 8 mph 68% 0 in 0 W/m2
00:11 51.4 °F 41.2 °F 29.4 in NE 4 mph 8 mph 68% 0 in 0 W/m2
00:16 51.4 °F 41.2 °F 29.4 in ENE 4 mph 7 mph 68% 0 in 0 W/m2
00:21 51.4 °F 41.2 °F 29.4 in NNW 4.9 mph 8 mph 68% 0 in 0 W/m2
00:26 51.4 °F 40.8 °F 29.4 in ENE 4.9 mph 12 mph 67% 0 in 0 W/m2
00:31 51.6 °F 41.4 °F 29.4 in NE 2.9 mph 4 mph 68% 0 in 0 W/m2
00:36 51.4 °F 41.2 °F 29.4 in North 4 mph 12 mph 68% 0 in 0 W/m2
00:41 51.4 °F 41.2 °F 29.4 in ENE 4.9 mph 9 mph 68% 0 in 0 W/m2
00:46 51.4 °F 41.2 °F 29.4 in NNE 4.9 mph 6 mph 68% 0 in 0 W/m2
00:51 51.6 °F 41 °F 29.4 in North 0.9 mph 8 mph 67% 0 in 0 W/m2
00:56 51.6 °F 41 °F 29.4 in SE 0.9 mph 7 mph 67% 0 in 0 W/m2
01:01 51.6 °F 41 °F 29.4 in North 0.9 mph 5 mph 67% 0 in 0 W/m2
01:06 51.6 °F 41 °F 29.4 in ESE 6 mph 9 mph 67% 0 in 0 W/m2
01:11 52 °F 41.4 °F 29.4 in ESE 2.9 mph 6 mph 67% 0 in 0 W/m2
01:16 52 °F 41 °F 29.4 in WSW 2.9 mph 12 mph 66% 0 in 0 W/m2
01:21 52 °F 41 °F 29.4 in North 4 mph 9 mph 66% 0 in 0 W/m2
01:26 52 °F 41 °F 29.4 in NW 4.9 mph 12 mph 66% 0 in 0 W/m2
01:31 52 °F 41 °F 29.4 in NNW 2 mph 10 mph 66% 0 in 0 W/m2
01:36 52.2 °F 41.5 °F 29.4 in North 4 mph 7 mph 67% 0 in 0 W/m2
01:41 52.3 °F 41.4 °F 29.4 in NNW 4 mph 8 mph 66% 0 in 0 W/m2
01:46 52.3 °F 41 °F 29.4 in ESE 2 mph 13 mph 65% 0 in 0 W/m2
01:51 52.3 °F 41 °F 29.4 in NNW 6 mph 6 mph 65% 0 in 0 W/m2
01:56 52.3 °F 41 °F 29.4 in North 4 mph 11 mph 65% 0 in 0 W/m2
02:01 52.3 °F 41.4 °F 29.4 in WSW 8.1 mph 9 mph 66% 0 in 0 W/m2
02:06 52.2 °F 41.2 °F 29.4 in NE 2 mph 11 mph 66% 0 in 0 W/m2
02:11 52.2 °F 41.2 °F 29.4 in NNE 6 mph 9 mph 66% 0 in 0 W/m2
02:16 52.2 °F 41.2 °F 29.4 in NE 4.9 mph 9 mph 66% 0 in 0 W/m2
02:21 52.2 °F 41.2 °F 29.4 in NW 2.9 mph 14 mph 66% 0 in 0 W/m2
02:26 52 °F 41 °F 29.4 in NE 4.9 mph 11 mph 66% 0 in 0 W/m2
02:31 52 °F 41.4 °F 29.4 in North 4.9 mph 6 mph 67% 0 in 0 W/m2
02:36 51.8 °F 41.2 °F 29.4 in WNW 6 mph 11 mph 67% 0 in 0 W/m2
02:41 52 °F 41.4 °F 29.4 in NNW 4.9 mph 6 mph 67% 0 in 0 W/m2
02:46 51.8 °F 41.2 °F 29.4 in North 2.9 mph 6 mph 67% 0 in 0 W/m2
02:51 52 °F 41.4 °F 29.4 in ENE 4 mph 7 mph 67% 0 in 0 W/m2
02:56 52 °F 41.4 °F 29.4 in NE 0.9 mph 12 mph 67% 0 in 0 W/m2
03:01 52 °F 41.4 °F 29.4 in SE 2.9 mph 6 mph 67% 0 in 0 W/m2
03:06 51.8 °F 41.2 °F 29.4 in NE 6.9 mph 10 mph 67% 0 in 0 W/m2
03:11 51.6 °F 41 °F 29.4 in NW 2.9 mph 10 mph 67% 0 in 0 W/m2
03:16 52 °F 41.4 °F 29.4 in ENE 4 mph 5 mph 67% 0 in 0 W/m2
03:21 52 °F 41.4 °F 29.4 in NW 2 mph 10 mph 67% 0 in 0 W/m2
03:26 52 °F 41.4 °F 29.4 in North 8.9 mph 9 mph 67% 0 in 0 W/m2
03:31 51.8 °F 41.5 °F 29.4 in WNW 11 mph 11 mph 68% 0 in 0 W/m2
03:37 52 °F 41.4 °F 29.4 in NNW 13 mph 13 mph 67% 0 in 0 W/m2
03:42 52 °F 41.7 °F 29.4 in West 2 mph 11 mph 68% 0 in 0 W/m2
03:47 51.8 °F 41.5 °F 29.4 in North 4 mph 11 mph 68% 0 in 0 W/m2
03:52 51.6 °F 41.7 °F 29.4 in NNE 6 mph 12 mph 69% 0 in 0 W/m2
03:57 51.6 °F 41.7 °F 29.3 in North 4.9 mph 9 mph 69% 0 in 0 W/m2
04:02 51.6 °F 41.7 °F 29.3 in NNE 13 mph 13 mph 69% 0 in 0 W/m2
04:07 51.8 °F 41.9 °F 29.3 in East 4 mph 14 mph 69% 0 in 0 W/m2
04:12 51.6 °F 41.7 °F 29.3 in NNW 2.9 mph 12 mph 69% 0 in 0 W/m2
04:17 51.4 °F 41.9 °F 29.3 in NW 2.9 mph 14 mph 70% 0 in 0 W/m2
04:22 51.4 °F 41.9 °F 29.3 in NE 2.9 mph 10 mph 70% 0 in 0 W/m2
04:27 51.6 °F 42.1 °F 29.4 in ENE 14.1 mph 15 mph 70% 0 in 0 W/m2
04:32 51.6 °F 42.1 °F 29.4 in ENE 6 mph 8 mph 70% 0 in 0 W/m2
04:37 51.6 °F 42.4 °F 29.4 in NW 8.1 mph 15 mph 71% 0 in 0 W/m2
04:42 51.4 °F 42.4 °F 29.3 in NNW 2 mph 11 mph 71% 0 in 0 W/m2
04:47 51.4 °F 41.9 °F 29.4 in NE 2.9 mph 10 mph 70% 0 in 0 W/m2
04:52 51.4 °F 41.9 °F 29.4 in North 2.9 mph 12 mph 70% 0 in 0 W/m2
04:57 51.8 °F 42.3 °F 29.3 in WNW 4 mph 17 mph 70% 0 in 0 W/m2
05:02 52 °F 42.4 °F 29.4 in ENE 4 mph 5 mph 70% 0 in 0 W/m2
05:07 51.8 °F 42.3 °F 29.3 in North 4 mph 10 mph 70% 0 in 0 W/m2
05:12 51.8 °F 42.6 °F 29.3 in ENE 8.1 mph 9 mph 71% 0 in 0 W/m2
05:17 51.6 °F 42.4 °F 29.3 in North 0.9 mph 7 mph 71% 0 in 0 W/m2
05:22 51.6 °F 42.4 °F 29.3 in ESE 6.9 mph 12 mph 71% 0 in 0 W/m2
05:27 52 °F 42.4 °F 29.3 in NNW 4 mph 16 mph 70% 0 in 0 W/m2
05:32 52 °F 42.4 °F 29.3 in NW 4 mph 10 mph 70% 0 in 0 W/m2
05:37 52.2 °F 42.6 °F 29.3 in WSW 2.9 mph 16 mph 70% 0 in 0 W/m2
05:42 52.2 °F 42.3 °F 29.3 in North 2.9 mph 10 mph 69% 0 in 0 W/m2
05:47 52.2 °F 42.6 °F 29.3 in East 2.9 mph 7 mph 70% 0 in 0 W/m2
05:52 52.2 °F 42.6 °F 29.3 in NNW 8.9 mph 13 mph 70% 0 in 0 W/m2
05:57 52.2 °F 42.6 °F 29.3 in West 6.9 mph 9 mph 70% 0 in 0 W/m2
06:02 52.2 °F 42.6 °F 29.3 in SSE 0.9 mph 10 mph 70% 0 in 0 W/m2
06:07 52.2 °F 42.6 °F 29.4 in ENE 0.9 mph 11 mph 70% 0 in 0 W/m2
06:12 52.2 °F 42.6 °F 29.4 in SE 4.9 mph 16 mph 70% 0 in 0 W/m2
06:17 52.3 °F 42.8 °F 29.3 in ENE 8.1 mph 10 mph 70% 0 in 0 W/m2
06:22 52.2 °F 43 °F 29.4 in SW 2.9 mph 18 mph 71% 0 in 0 W/m2
06:27 52.2 °F 43.3 °F 29.3 in East 8.9 mph 14 mph 72% 0 in 0 W/m2
06:32 51.8 °F 43.3 °F 29.3 in ENE 14.1 mph 18 mph 73% 0 in 0 W/m2
06:37 51.6 °F 43.3 °F 29.3 in NW 6 mph 15 mph 73% 0 in 0 W/m2
06:42 51.4 °F 43.5 °F 29.3 in WNW 16 mph 16 mph 74% 0 in 0 W/m2
06:47 51.4 °F 43.7 °F 29.3 in ENE 2 mph 14 mph 75% 0 in 0 W/m2
06:52 51.4 °F 43.7 °F 29.3 in NNW 4 mph 12 mph 75% 0 in 0 W/m2
06:57 51.3 °F 43.9 °F 29.3 in NNW 2 mph 14 mph 76% 0 in 0 W/m2
07:02 51.1 °F 43.7 °F 29.3 in NNW 2.9 mph 14 mph 76% 0 in 0 W/m2
07:07 50.9 °F 44.2 °F 29.3 in East 6 mph 19 mph 78% 0 in 0 W/m2
07:12 50.7 °F 44.1 °F 29.3 in NNW 2.9 mph 9 mph 78% 0 in 0 W/m2
07:17 50.5 °F 44.2 °F 29.3 in NW 6 mph 19 mph 79% 0 in 0 W/m2
07:22 50.4 °F 44.4 °F 29.3 in NNW 4 mph 7 mph 80% 0 in 0 W/m2
07:27 49.8 °F 44.6 °F 29.4 in NNE 2 mph 11 mph 82% 0 in 0 W/m2
07:32 49.6 °F 44.8 °F 29.4 in North 2.9 mph 8 mph 83% 0 in 0 W/m2
07:37 49.5 °F 44.8 °F 29.4 in NE 0.9 mph 12 mph 84% 0 in 0 W/m2
07:42 49.3 °F 45 °F 29.4 in NNW 2.9 mph 9 mph 85% 0.01 in 0 W/m2
07:47 48.9 °F 45 °F 29.4 in NW 2.9 mph 12 mph 86% 0.02 in 0 W/m2
07:52 48.7 °F 45 °F 29.4 in ENE 0.9 mph 8 mph 87% 0.02 in 0 W/m2
07:57 48.6 °F 44.8 °F 29.4 in North 2 mph 8 mph 87% 0.03 in 0 W/m2
08:02 48.6 °F 45.1 °F 29.4 in NNW 6 mph 10 mph 88% 0.04 in 0 W/m2
08:07 48.4 °F 45.3 °F 29.4 in WNW 2.9 mph 14 mph 89% 0.04 in 0 W/m2
08:12 47.5 °F 43.9 °F 29.4 in West 4 mph 16 mph 87% 0.06 in 0 W/m2
08:17 45.7 °F 42.3 °F 29.4 in WSW 8.9 mph 12 mph 88% 0.09 in 0 W/m2
08:22 44.6 °F 41.5 °F 29.4 in WSW 4 mph 10 mph 89% 0.1 in 0 W/m2
08:27 44.1 °F 41.4 °F 29.4 in WNW 4 mph 10 mph 90% 0.11 in 0 W/m2
08:32 43.9 °F 41.4 °F 29.4 in West 6 mph 9 mph 91% 0.12 in 0 W/m2
08:37 43.5 °F 41 °F 29.4 in West 2 mph 9 mph 91% 0.12 in 0 W/m2
08:42 43.3 °F 40.8 °F 29.4 in West 2.9 mph 8 mph 91% 0.12 in 5 W/m2
08:47 43.2 °F 41 °F 29.4 in WSW 8.1 mph 9 mph 92% 0.11 in 5 W/m2
08:52 43 °F 40.8 °F 29.4 in West 4 mph 10 mph 92% 0.11 in 0 W/m2
08:57 42.8 °F 40.6 °F 29.4 in West 2.9 mph 6 mph 92% 0.1 in 0 W/m2
09:02 42.6 °F 40.5 °F 29.4 in West 2.9 mph 6 mph 92% 0.09 in 5 W/m2
09:07 42.6 °F 40.5 °F 29.4 in WNW 2.9 mph 4 mph 92% 0.1 in 9 W/m2
09:12 42.4 °F 40.3 °F 29.4 in WNW 0.9 mph 7 mph 92% 0.09 in 9 W/m2
09:17 42.4 °F 40.3 °F 29.5 in SW 4 mph 10 mph 92% 0.06 in 18 W/m2
09:22 42.4 °F 40.3 °F 29.5 in West 2.9 mph 8 mph 92% 0.06 in 26 W/m2
09:27 42.4 °F 40.3 °F 29.5 in West 4 mph 8 mph 92% 0.05 in 39 W/m2
09:32 42.3 °F 40.1 °F 29.5 in West 6.9 mph 8 mph 92% 0.05 in 39 W/m2
09:37 42.3 °F 39.7 °F 29.5 in NW 4 mph 6 mph 91% 0.05 in 30 W/m2
09:42 42.3 °F 39.7 °F 29.5 in Calm   3 mph 91% 0.05 in 21 W/m2
09:47 42.3 °F 39.7 °F 29.5 in NE 4 mph 7 mph 91% 0.04 in 77 W/m2
09:52 42.3 °F 39.7 °F 29.5 in Calm   4 mph 91% 0.04 in 102 W/m2
09:57 42.4 °F 40.3 °F 29.5 in ENE 2 mph 3 mph 92% 0.04 in 65 W/m2
10:02 42.4 °F 40.3 °F 29.5 in SSE 2 mph 3 mph 92% 0.04 in 90 W/m2
10:07 42.4 °F 40.3 °F 29.5 in West 2 mph 3 mph 92% 0.03 in 65 W/m2
10:12 42.6 °F 40.5 °F 29.5 in Calm   1 mph 92% 0.03 in 74 W/m2
10:17 42.6 °F 40.5 °F 29.5 in NW 4 mph 4 mph 92% 0.02 in 70 W/m2
10:22 42.6 °F 40.1 °F 29.5 in ESE 4 mph 4 mph 91% 0.02 in 83 W/m2
10:27 42.8 °F 40.3 °F 29.5 in ESE 0.9 mph 4 mph 91% 0.02 in 60 W/m2
10:32 43 °F 40.5 °F 29.5 in South 0.9 mph 4 mph 91% 0.01 in 67 W/m2
10:37 43 °F 40.5 °F 29.5 in SSE 0.9 mph 3 mph 91% 0 in 134 W/m2
10:42 43.2 °F 40.6 °F 29.5 in West 0.9 mph 7 mph 91% 0 in 77 W/m2
10:47 43.2 °F 40.6 °F 29.5 in WNW 2 mph 4 mph 91% 0 in 93 W/m2
10:52 43.3 °F 40.8 °F 29.5 in WNW 0.9 mph 3 mph 91% 0 in 127 W/m2
10:57 43.5 °F 41 °F 29.5 in NW 2.9 mph 8 mph 91% 0 in 135 W/m2
11:02 43.7 °F 41 °F 29.5 in West 2 mph 4 mph 90% 0 in 100 W/m2
11:07 44.1 °F 41.5 °F 29.5 in West 2 mph 3 mph 91% 0 in 134 W/m2
11:12 44.1 °F 41.4 °F 29.5 in NW 2.9 mph 6 mph 90% 0 in 146 W/m2
11:17 44.2 °F 41.2 °F 29.5 in WNW 2.9 mph 9 mph 89% 0 in 123 W/m2
11:22 44.2 °F 41.2 °F 29.5 in Calm   3 mph 89% 0 in 116 W/m2
11:27 44.2 °F 41.2 °F 29.5 in WNW 6 mph 9 mph 89% 0 in 127 W/m2
11:32 44.4 °F 41.2 °F 29.5 in West 0.9 mph 5 mph 88% 0 in 134 W/m2
11:37 44.4 °F 41.4 °F 29.5 in South 0.9 mph 3 mph 89% 0 in 134 W/m2
11:42 44.4 °F 41.2 °F 29.5 in NW 4 mph 8 mph 88% 0 in 163 W/m2
11:47 44.4 °F 41.2 °F 29.5 in ESE 2.9 mph 5 mph 88% 0 in 142 W/m2
11:52 44.6 °F 41.2 °F 29.5 in SW 2.9 mph 9 mph 88% 0 in 132 W/m2
11:57 44.6 °F 41.2 °F 29.5 in SSW 2.9 mph 3 mph 88% 0 in 137 W/m2
12:02 44.6 °F 41.2 °F 29.5 in NW 4 mph 9 mph 88% 0 in 142 W/m2
12:07 44.8 °F 41.2 °F 29.5 in West 0.9 mph 9 mph 87% 0 in 144 W/m2
12:12 44.8 °F 41.2 °F 29.5 in Calm   7 mph 87% 0 in 146 W/m2
12:17 45 °F 41.4 °F 29.5 in WNW 2 mph 9 mph 87% 0 in 139 W/m2
12:22 45.1 °F 41.2 °F 29.5 in West 6.9 mph 9 mph 86% 0 in 137 W/m2
12:27 45.1 °F 41.2 °F 29.5 in North 4 mph 8 mph 86% 0 in 127 W/m2
12:32 45.3 °F 41.4 °F 29.5 in WNW 4.9 mph 8 mph 86% 0 in 109 W/m2
12:37 45.5 °F 41.2 °F 29.5 in West 0.9 mph 4 mph 85% 0 in 104 W/m2
12:42 45.7 °F 41.2 °F 29.5 in WNW 6.9 mph 15 mph 84% 0 in 100 W/m2
12:47 45.9 °F 41.4 °F 29.5 in WNW 4 mph 10 mph 84% 0 in 118 W/m2
12:52 46 °F 41.2 °F 29.5 in ENE 0.9 mph 3 mph 83% 0 in 105 W/m2
12:57 46.2 °F 41.4 °F 29.5 in NW 0.9 mph 4 mph 83% 0 in 127 W/m2
13:02 46.4 °F 41.2 °F 29.5 in NNE 0.9 mph 4 mph 82% 0 in 132 W/m2
13:07 46.6 °F 41 °F 29.5 in WSW 11 mph 11 mph 81% 0 in 128 W/m2
13:12 46.8 °F 41 °F 29.5 in SE 2 mph 6 mph 80% 0 in 121 W/m2
13:17 46.9 °F 40.8 °F 29.5 in Calm   11 mph 79% 0 in 125 W/m2
13:22 46.9 °F 40.8 °F 29.5 in NW 4.9 mph 6 mph 79% 0 in 125 W/m2
13:27 46.9 °F 40.8 °F 29.5 in ESE 2 mph 3 mph 79% 0 in 125 W/m2
13:32 47.1 °F 40.6 °F 29.5 in NW 2 mph 4 mph 78% 0 in 128 W/m2
13:37 47.1 °F 40.6 °F 29.5 in North 2.9 mph 7 mph 78% 0 in 137 W/m2
13:42 47.1 °F 40.6 °F 29.5 in WNW 2 mph 5 mph 78% 0 in 137 W/m2
13:47 47.3 °F 40.5 °F 29.5 in NW 2 mph 4 mph 77% 0 in 123 W/m2
13:52 47.5 °F 40.6 °F 29.5 in ENE 8.1 mph 10 mph 77% 0 in 128 W/m2
13:57 47.5 °F 40.6 °F 29.5 in ESE 2 mph 6 mph 77% 0 in 134 W/m2
14:02 47.7 °F 40.8 °F 29.5 in West 2 mph 8 mph 77% 0 in 132 W/m2
14:07 47.8 °F 40.6 °F 29.4 in NW 2 mph 4 mph 76% 0 in 135 W/m2
14:12 47.8 °F 40.6 °F 29.4 in SE 2 mph 8 mph 76% 0 in 130 W/m2
14:18 48 °F 40.8 °F 29.4 in WNW 2.9 mph 4 mph 76% 0 in 111 W/m2
14:23 48.2 °F 40.6 °F 29.4 in South 4 mph 7 mph 75% 0 in 118 W/m2
14:28 48.4 °F 40.8 °F 29.4 in ESE 4 mph 4 mph 75% 0 in 118 W/m2
14:33 48.4 °F 40.8 °F 29.4 in NW 2 mph 4 mph 75% 0 in 113 W/m2
14:38 48.6 °F 40.6 °F 29.4 in NNE 2 mph 8 mph 74% 0 in 109 W/m2
14:43 48.6 °F 40.6 °F 29.4 in WNW 4 mph 4 mph 74% 0 in 109 W/m2
14:48 48.7 °F 40.8 °F 29.4 in WNW 2 mph 7 mph 74% 0 in 109 W/m2
14:53 48.7 °F 40.8 °F 29.4 in NE 2.9 mph 8 mph 74% 0 in 97 W/m2
14:58 48.7 °F 40.5 °F 29.4 in WNW 10.1 mph 10 mph 73% 0 in 104 W/m2
15:03 48.7 °F 40.5 °F 29.4 in ENE 4.9 mph 7 mph 73% 0 in 97 W/m2
15:08 48.7 °F 40.5 °F 29.4 in NW 4.9 mph 5 mph 73% 0 in 74 W/m2
15:13 48.7 °F 40.8 °F 29.4 in WNW 4.9 mph 6 mph 74% 0 in 62 W/m2
15:18 48.7 °F 40.8 °F 29.4 in WNW 4 mph 4 mph 74% 0 in 53 W/m2
15:23 48.7 °F 41.2 °F 29.4 in ESE 0.9 mph 2 mph 75% 0 in 35 W/m2
15:28 48.7 °F 41.2 °F 29.4 in Calm   4 mph 75% 0 in 28 W/m2
15:33 48.6 °F 41.4 °F 29.4 in NE 2 mph 3 mph 76% 0 in 25 W/m2
15:38 48.6 °F 41.7 °F 29.4 in North 0.9 mph 2 mph 77% 0 in 23 W/m2
15:43 48.4 °F 41.9 °F 29.4 in Calm   3 mph 78% 0 in 32 W/m2
15:48 48.4 °F 42.3 °F 29.4 in North 0.9 mph 3 mph 79% 0 in 32 W/m2
15:53 48.2 °F 42.3 °F 29.4 in West 2 mph 3 mph 80% 0 in 16 W/m2
15:58 48 °F 42.4 °F 29.4 in NNE 2 mph 2 mph 81% 0 in 18 W/m2
16:03 47.8 °F 42.6 °F 29.4 in ENE 2.9 mph 4 mph 82% 0 in 23 W/m2
16:08 47.8 °F 43 °F 29.4 in North 0.9 mph 2 mph 83% 0 in 21 W/m2
16:13 47.7 °F 43 °F 29.4 in Calm   4 mph 84% 0.01 in 23 W/m2
16:18 47.5 °F 43.5 °F 29.4 in NE 2.9 mph 4 mph 86% 0.01 in 16 W/m2
16:23 47.3 °F 43.7 °F 29.4 in North 0.9 mph 2 mph 87% 0.01 in 16 W/m2
16:28 47.1 °F 43.5 °F 29.4 in North 2 mph 4 mph 87% 0.01 in 14 W/m2
16:33 47.1 °F 43.7 °F 29.4 in East 2.9 mph 8 mph 88% 0.01 in 9 W/m2
16:38 47.1 °F 43.7 °F 29.4 in WSW 0.9 mph 8 mph 88% 0.01 in 9 W/m2
16:43 47.1 °F 44.1 °F 29.4 in Calm   2 mph 89% 0.01 in 7 W/m2
16:48 47.1 °F 44.1 °F 29.4 in NNW 0.9 mph 2 mph 89% 0.01 in 5 W/m2
16:53 47.1 °F 44.1 °F 29.4 in NNE 0.9 mph 2 mph 89% 0.01 in 5 W/m2
16:58 47.1 °F 44.1 °F 29.4 in ESE 2 mph 4 mph 89% 0.01 in 0 W/m2
17:03 47.1 °F 44.1 °F 29.4 in NW 2 mph 2 mph 89% 0.01 in 0 W/m2
17:08 47.1 °F 44.1 °F 29.4 in NE 2.9 mph 5 mph 89% 0.01 in 0 W/m2
17:13 47.1 °F 44.1 °F 29.4 in South 2 mph 9 mph 89% 0 in 0 W/m2
17:18 47.1 °F 44.1 °F 29.4 in North 0.9 mph 3 mph 89% 0 in 0 W/m2
17:23 47.1 °F 44.1 °F 29.4 in ENE 2.9 mph 7 mph 89% 0 in 0 W/m2
17:28 47.3 °F 44.2 °F 29.4 in ESE 2 mph 2 mph 89% 0 in 0 W/m2
17:33 47.3 °F 44.2 °F 29.4 in East 2 mph 7 mph 89% 0 in 0 W/m2
17:38 47.1 °F 44.4 °F 29.4 in ENE 2 mph 3 mph 90% 0.01 in 0 W/m2
17:43 47.1 °F 44.4 °F 29.4 in ENE 0.9 mph 2 mph 90% 0.02 in 0 W/m2
17:48 47.1 °F 44.4 °F 29.4 in NE 0.9 mph 4 mph 90% 0.02 in 0 W/m2
17:53 46.9 °F 44.4 °F 29.4 in ESE 2 mph 6 mph 91% 0.03 in 0 W/m2
17:58 46.9 °F 44.4 °F 29.4 in Calm   3 mph 91% 0.04 in 0 W/m2
18:03 46.8 °F 44.6 °F 29.3 in SE 2 mph 9 mph 92% 0.06 in 0 W/m2
18:08 46.6 °F 44.4 °F 29.4 in East 2.9 mph 3 mph 92% 0.06 in 0 W/m2
18:13 46.6 °F 44.6 °F 29.3 in North 0.9 mph 3 mph 93% 0.07 in 0 W/m2
18:18 46.6 °F 44.6 °F 29.3 in NNE 2 mph 4 mph 93% 0.08 in 0 W/m2
18:23 46.9 °F 45 °F 29.3 in NE 0.9 mph 9 mph 93% 0.09 in 0 W/m2
18:28 47.1 °F 45.1 °F 29.3 in North 2 mph 5 mph 93% 0.09 in 0 W/m2
18:33 47.7 °F 45.7 °F 29.3 in North 0.9 mph 8 mph 93% 0.1 in 0 W/m2
18:38 47.8 °F 45.9 °F 29.3 in NE 4.9 mph 9 mph 93% 0.09 in 0 W/m2
18:43 48 °F 46 °F 29.3 in ENE 4 mph 6 mph 93% 0.09 in 0 W/m2
18:48 48.2 °F 46.2 °F 29.3 in East 0.9 mph 9 mph 93% 0.09 in 0 W/m2
18:53 48.2 °F 46.2 °F 29.3 in NE 2.9 mph 3 mph 93% 0.09 in 0 W/m2
18:58 48.2 °F 46.2 °F 29.3 in WNW 2.9 mph 3 mph 93% 0.08 in 0 W/m2
19:03 48.4 °F 46.4 °F 29.3 in NE 2.9 mph 10 mph 93% 0.06 in 0 W/m2
19:08 48.6 °F 46.6 °F 29.3 in NW 4 mph 5 mph 93% 0.06 in 0 W/m2
19:13 48.6 °F 46.4 °F 29.3 in NW 2 mph 2 mph 92% 0.05 in 0 W/m2
19:18 48.7 °F 46.6 °F 29.3 in ENE 6 mph 7 mph 92% 0.03 in 0 W/m2
19:23 48.9 °F 46.8 °F 29.3 in East 2.9 mph 7 mph 92% 0.03 in 0 W/m2
19:28 49.1 °F 46.6 °F 29.3 in NNE 0.9 mph 7 mph 91% 0.02 in 0 W/m2
19:33 49.3 °F 46.8 °F 29.3 in NNE 4.9 mph 9 mph 91% 0.02 in 0 W/m2
19:38 49.3 °F 46.4 °F 29.3 in East 0.9 mph 4 mph 90% 0.02 in 0 W/m2
19:43 49.3 °F 46.4 °F 29.3 in East 0.9 mph 9 mph 90% 0.02 in 0 W/m2
19:48 49.5 °F 46.6 °F 29.3 in North 4 mph 6 mph 90% 0.02 in 0 W/m2
19:53 49.5 °F 46.6 °F 29.3 in NW 2.9 mph 4 mph 90% 0.02 in 0 W/m2
19:58 49.5 °F 46.6 °F 29.3 in WNW 8.9 mph 10 mph 90% 0.02 in 0 W/m2
20:03 49.6 °F 46.6 °F 29.3 in East 6.9 mph 13 mph 89% 0.02 in 0 W/m2
20:08 49.5 °F 46.4 °F 29.3 in NNE 4 mph 10 mph 89% 0.02 in 0 W/m2
20:13 49.5 °F 46.4 °F 29.3 in WNW 8.1 mph 13 mph 89% 0.02 in 0 W/m2
20:18 49.6 °F 46.6 °F 29.3 in NNE 4 mph 9 mph 89% 0.02 in 0 W/m2
20:23 49.6 °F 46.6 °F 29.3 in NNW 4.9 mph 5 mph 89% 0.02 in 0 W/m2
20:29 49.6 °F 46.2 °F 29.3 in ENE 4.9 mph 6 mph 88% 0.02 in 0 W/m2
20:34 49.8 °F 46.4 °F 29.3 in NNE 4 mph 13 mph 88% 0.01 in 0 W/m2
20:39 49.8 °F 46.4 °F 29.3 in North 4.9 mph 9 mph 88% 0.01 in 0 W/m2
20:44 50 °F 46.2 °F 29.3 in WNW 4 mph 12 mph 87% 0.01 in 0 W/m2
20:49 49.8 °F 46 °F 29.3 in North 2.9 mph 8 mph 87% 0 in 0 W/m2
20:54 50 °F 46.2 °F 29.3 in SSW 4.9 mph 8 mph 87% 0 in 0 W/m2
20:59 50.2 °F 46.2 °F 29.3 in NNW 8.1 mph 14 mph 86% 0.01 in 0 W/m2
21:04 50.2 °F 46.2 °F 29.3 in WSW 2 mph 14 mph 86% 0.01 in 0 W/m2
21:09 50.2 °F 46.2 °F 29.3 in WNW 6.9 mph 11 mph 86% 0.01 in 0 W/m2
21:14 50.2 °F 46.2 °F 29.3 in NNW 2.9 mph 6 mph 86% 0.01 in 0 W/m2
21:19 50.2 °F 46.2 °F 29.3 in NW 11 mph 11 mph 86% 0.01 in 0 W/m2
21:24 50.2 °F 46.2 °F 29.3 in NNE 2 mph 8 mph 86% 0.01 in 0 W/m2
21:29 50.2 °F 46.2 °F 29.3 in WNW 12.1 mph 14 mph 86% 0.02 in 0 W/m2
21:34 50 °F 46.2 °F 29.3 in ENE 4 mph 11 mph 87% 0.02 in 0 W/m2
21:39 49.8 °F 46 °F 29.3 in North 0.9 mph 14 mph 87% 0.02 in 0 W/m2
21:44 49.6 °F 45.9 °F 29.3 in North 2 mph 9 mph 87% 0.02 in 0 W/m2
21:49 49.6 °F 45.9 °F 29.3 in NNW 2.9 mph 6 mph 87% 0.02 in 0 W/m2
21:54 49.6 °F 46.2 °F 29.3 in NNW 4 mph 9 mph 88% 0.02 in 0 W/m2
21:59 49.6 °F 46.2 °F 29.3 in ENE 6.9 mph 12 mph 88% 0.02 in 0 W/m2
22:04 49.6 °F 46.2 °F 29.3 in NW 8.1 mph 10 mph 88% 0.02 in 0 W/m2
22:09 49.6 °F 46.2 °F 29.2 in WNW 4 mph 5 mph 88% 0.02 in 0 W/m2
22:14 49.8 °F 46 °F 29.3 in NNW 2 mph 10 mph 87% 0.02 in 0 W/m2
22:19 49.8 °F 46 °F 29.3 in West 2 mph 10 mph 87% 0.02 in 0 W/m2
22:24 49.8 °F 46 °F 29.2 in NW 4.9 mph 9 mph 87% 0.02 in 0 W/m2
22:29 50 °F 46.2 °F 29.2 in North 2 mph 9 mph 87% 0.02 in 0 W/m2
22:34 50.2 °F 46.2 °F 29.2 in North 2 mph 12 mph 86% 0.02 in 0 W/m2
22:39 50.2 °F 46.2 °F 29.2 in East 0.9 mph 6 mph 86% 0.02 in 0 W/m2
22:44 50.4 °F 46 °F 29.2 in NNW 2 mph 12 mph 85% 0.02 in 0 W/m2
22:49 50.4 °F 46 °F 29.2 in Calm   4 mph 85% 0.02 in 0 W/m2
22:54 50.5 °F 45.5 °F 29.2 in East 2 mph 6 mph 83% 0.01 in 0 W/m2
22:59 50.5 °F 45.5 °F 29.2 in NW 2.9 mph 10 mph 83% 0.01 in 0 W/m2
23:04 50.7 °F 45.5 °F 29.2 in NE 0.9 mph 9 mph 82% 0.01 in 0 W/m2
23:09 50.9 °F 45.3 °F 29.2 in NNE 4.9 mph 10 mph 81% 0.01 in 0 W/m2
23:14 50.9 °F 45.3 °F 29.2 in NE 4 mph 7 mph 81% 0.01 in 0 W/m2
23:19 50.9 °F 45 °F 29.2 in West 2.9 mph 5 mph 80% 0 in 0 W/m2
23:24 51.1 °F 44.8 °F 29.2 in NNW 6 mph 10 mph 79% 0 in 0 W/m2
23:29 51.1 °F 44.8 °F 29.2 in NNW 4.9 mph 9 mph 79% 0 in 0 W/m2
23:34 51.3 °F 44.6 °F 29.2 in WNW 2 mph 5 mph 78% 0 in 0 W/m2
23:39 51.3 °F 44.6 °F 29.2 in North 4.9 mph 10 mph 78% 0 in 0 W/m2
23:44 51.3 °F 44.6 °F 29.2 in WNW 14.1 mph 14 mph 78% 0 in 0 W/m2
23:49 51.3 °F 44.6 °F 29.2 in NNW 4.9 mph 7 mph 78% 0 in 0 W/m2
23:54 51.1 °F 44.4 °F 29.2 in ENE 2.9 mph 9 mph 78% 0 in 0 W/m2
23:59 51.1 °F 44.4 °F 29.2 in ENE 13 mph 13 mph 78% 0 in 0 W/m2
Juneau County Weather
Compliments of Weather Underground - 4 mb